ID Time Temp Humidity Light PM2.5 PM10 Voltage Extra Firmware Position Fcnt Gateways Distance RSSI LSNR Radiosettings
2020-11-23 19:33:25 4.3125°C 93.5% 3.34V 0,0,0,0,0,0,0,0,0,0,0,0 v255 No position 21 - -81 12 868.3Mhz, SF9BW125, 4/5CR
2020-11-23 19:00:38 4.5625°C 93.4375% 3.34V 0,0,0,0,0,0,0,0,0,0,0,0 v255 No position 20 - -82 13.25 867.1Mhz, SF9BW125, 4/5CR
2020-11-23 18:27:50 4.625°C 93.25% 3.34V 0,0,0,0,0,0,0,0,0,0,0,0 v255 No position 19 - -83 13.25 868.1Mhz, SF9BW125, 4/5CR
2020-11-23 17:55:03 5.0625°C 93.1875% 3.34V 0,0,0,0,0,0,0,0,0,0,0,0 v255 No position 18 - -85 12.75 867.9Mhz, SF9BW125, 4/5CR
2020-11-23 17:22:14 5.4375°C 92.75% 3.34V 0,0,0,0,0,0,0,0,0,0,0,0 v255 No position 17 - -83 8.25 868.5Mhz, SF9BW125, 4/5CR
2020-11-23 16:49:26 6°C 92.5625% 3.34V 0,0,0,0,0,0,0,0,0,0,0,0 v255 No position 16 - -82 11 867.7Mhz, SF9BW125, 4/5CR
2020-11-23 16:16:38 6.6875°C 92.3125% 3.34V 0,0,0,0,0,0,0,0,0,0,0,0 v255 No position 15 - -85 11.5 868.3Mhz, SF9BW125, 4/5CR
2020-11-23 15:43:49 7.25°C 92.375% 3.34V 0,0,0,0,0,0,0,0,0,0,0,0 v255 No position 14 - -83 9.5 867.5Mhz, SF9BW125, 4/5CR
2020-11-23 15:11:00 7.5°C 92.4375% 3.34V 0,0,0,0,0,0,0,0,0,0,0,0 v255 No position 13 - -85 12.5 868.1Mhz, SF9BW125, 4/5CR
2020-11-23 14:38:10 7.5°C 93.1875% 3.34V 0,0,0,0,0,0,0,0,0,0,0,0 v255 No position 12 - -81 11.75 867.3Mhz, SF9BW125, 4/5CR
2020-11-23 14:05:21 7.5°C 93.5% 3.34V 0,0,0,0,0,0,0,0,0,0,0,0 v255 No position 11 - -83 9.25 868.5Mhz, SF9BW125, 4/5CR
2020-11-23 13:32:32 7.3125°C 93.9375% 3.34V 0,0,0,0,0,0,0,0,0,0,0,0 v255 No position 10 - -83 12.5 867.1Mhz, SF9BW125, 4/5CR
2020-11-23 12:59:43 7°C 94.8125% 3.34V 0,0,0,0,0,0,0,0,0,0,0,0 v255 No position 9 - -81 13 868.3Mhz, SF9BW125, 4/5CR
2020-11-23 12:26:55 6.4375°C 95.375% 3.34V 0,0,0,0,0,0,0,0,0,0,0,0 v255 No position 8 - -85 12.25 867.9Mhz, SF9BW125, 4/5CR
2020-11-23 11:54:06 5.9375°C 95.3125% 3.34V 0,0,0,0,0,0,0,0,0,0,0,0 v255 No position 7 - -85 12.75 868.1Mhz, SF9BW125, 4/5CR
2020-11-23 11:21:18 5.0625°C 95.4375% 3.34V 0,0,0,0,0,0,0,0,0,0,0,0 v255 No position 6 - -79 11.5 867.7Mhz, SF9BW125, 4/5CR
2020-11-23 10:48:30 4.625°C 95.4375% 3.34V 0,0,0,0,0,0,0,0,0,0,0,0 v255 No position 5 - -79 9.75 868.5Mhz, SF9BW125, 4/5CR
2020-11-23 10:15:43 4.25°C 95.1875% 3.34V 0,0,0,0,0,0,0,0,0,0,0,0 v255 No position 4 - -83 9 867.5Mhz, SF9BW125, 4/5CR
2020-11-23 09:42:55 3.6875°C 94.5625% 3.34V 0,0,0,0,0,0,0,0,0,0,0,0 v255 No position 3 - -83 13.75 868.3Mhz, SF9BW125, 4/5CR
2020-11-23 09:10:09 2.5°C 95.375% 3.34V 0,0,0,0,0,0,0,0,0,0,0,0 v255 No position 2 - -83 13.5 867.3Mhz, SF9BW125, 4/5CR
2020-11-23 08:37:22 2.3125°C 95.0625% 3.34V 0,0,0,0,0,0,0,0,0,0,0,0 v255 No position 1 - -85 13 868.1Mhz, SF9BW125, 4/5CR
2020-11-23 08:07:01 2.1875°C 95.0625% 3.34V 0,0,0,0,0,0,0,0,0,0,0,0 v255 No position 0 - -83 10 867.1Mhz, SF7BW125, 4/5CR
2020-11-23 07:34:21 2.3125°C 95.0625% 3.34V 0,0,0,0,0,0,0,0,0,0,0,0 v255 No position 0 - -83 9.75 867.1Mhz, SF7BW125, 4/5CR
2020-11-23 06:59:24 2.375°C 95.0625% 3.34V 0,0,0,0,0,0,0,0,0,0,0,0 v255 No position 943 - -78 12.5 867.3Mhz, SF9BW125, 4/5CR
2020-11-23 06:26:38 2.5°C 95.125% 3.34V 0,0,0,0,0,0,0,0,0,0,0,0 v255 No position 942 - -83 12.5 868.3Mhz, SF9BW125, 4/5CR
2020-11-23 05:53:51 2.625°C 95.125% 3.34V 0,0,0,0,0,0,0,0,0,0,0,0 v255 No position 941 - -89 12.5 867.1Mhz, SF9BW125, 4/5CR
2020-11-23 05:21:04 2.75°C 95.125% 3.34V 0,0,0,0,0,0,0,0,0,0,0,0 v255 No position 940 - -84 11.75 868.1Mhz, SF9BW125, 4/5CR
2020-11-23 04:48:18 2.875°C 95.3125% 3.34V 0,0,0,0,0,0,0,0,0,0,0,0 v255 No position 939 - -85 14 867.9Mhz, SF9BW125, 4/5CR
2020-11-23 04:15:31 2.875°C 95.1875% 3.34V 0,0,0,0,0,0,0,0,0,0,0,0 v255 No position 938 - -83 9.5 868.5Mhz, SF9BW125, 4/5CR
2020-11-23 03:42:44 2.9375°C 94.9375% 3.34V 0,0,0,0,0,0,0,0,0,0,0,0 v255 No position 937 - -79 12 867.7Mhz, SF9BW125, 4/5CR
2020-11-23 03:09:58 3.125°C 95% 3.34V 0,0,0,0,0,0,0,0,0,0,0,0 v255 No position 936 - -81 12 868.3Mhz, SF9BW125, 4/5CR
2020-11-23 02:37:11 3.125°C 94.9375% 3.34V 0,0,0,0,0,0,0,0,0,0,0,0 v255 No position 935 - -81 9.75 867.5Mhz, SF9BW125, 4/5CR
2020-11-23 02:04:24 3.25°C 94.625% 3.34V 0,0,0,0,0,0,0,0,0,0,0,0 v255 No position 934 - -82 11.75 868.1Mhz, SF9BW125, 4/5CR
2020-11-23 01:31:37 3.5°C 94.6875% 3.34V 0,0,0,0,0,0,0,0,0,0,0,0 v255 No position 933 - -85 12.75 867.3Mhz, SF9BW125, 4/5CR
2020-11-23 00:58:50 3.8125°C 94.6875% 3.34V 0,0,0,0,0,0,0,0,0,0,0,0 v255 No position 932 - -82 9.5 868.5Mhz, SF9BW125, 4/5CR
2020-11-23 00:26:03 4.0625°C 94.5625% 3.34V 0,0,0,0,0,0,0,0,0,0,0,0 v255 No position 931 - -85 12.75 867.1Mhz, SF9BW125, 4/5CR
2020-11-22 23:53:15 4.5°C 94.5% 3.34V 0,0,0,0,0,0,0,0,0,0,0,0 v255 No position 930 - -89 11.75 868.3Mhz, SF9BW125, 4/5CR
2020-11-22 23:20:28 5°C 94.875% 3.34V 0,0,0,0,0,0,0,0,0,0,0,0 v255 No position 929 - -85 12 867.9Mhz, SF9BW125, 4/5CR
2020-11-22 22:47:40 5.5°C 95.4375% 3.34V 0,0,0,0,0,0,0,0,0,0,0,0 v255 No position 928 - -84 12 868.1Mhz, SF9BW125, 4/5CR
2020-11-22 22:14:52 5.875°C 96.0625% 3.34V 0,0,0,0,0,0,0,0,0,0,0,0 v255 No position 927 - -85 12.5 867.7Mhz, SF9BW125, 4/5CR
2020-11-22 21:42:03 5.8125°C 95.8125% 3.34V 0,0,0,0,0,0,0,0,0,0,0,0 v255 No position 926 - -81 9.25 868.5Mhz, SF9BW125, 4/5CR
2020-11-22 21:09:15 5.4375°C 95.4375% 3.34V 0,0,0,0,0,0,0,0,0,0,0,0 v255 No position 925 - -83 9.5 867.5Mhz, SF9BW125, 4/5CR
2020-11-22 20:36:27 5.125°C 95% 3.34V 0,0,0,0,0,0,0,0,0,0,0,0 v255 No position 924 - -85 10.75 868.3Mhz, SF9BW125, 4/5CR
2020-11-22 20:03:40 5.25°C 95% 3.34V 0,0,0,0,0,0,0,0,0,0,0,0 v255 No position 923 - -81 12 867.3Mhz, SF9BW125, 4/5CR
2020-11-22 19:30:52 5.25°C 94.375% 3.34V 0,0,0,0,0,0,0,0,0,0,0,0 v255 No position 922 - -84 12.5 868.1Mhz, SF9BW125, 4/5CR
2020-11-22 18:58:04 5.5625°C 94.125% 3.34V 0,0,0,0,0,0,0,0,0,0,0,0 v255 No position 921 - -85 12 867.1Mhz, SF9BW125, 4/5CR
2020-11-22 18:25:16 6.0625°C 93.8125% 3.34V 0,0,0,0,0,0,0,0,0,0,0,0 v255 No position 920 - -85 9.5 868.5Mhz, SF9BW125, 4/5CR
2020-11-22 17:52:27 6.875°C 93.375% 3.34V 0,0,0,0,0,0,0,0,0,0,0,0 v255 No position 919 - -93 11.75 867.9Mhz, SF9BW125, 4/5CR
2020-11-22 17:19:38 7.625°C 93.25% 3.34V 0,0,0,0,0,0,0,0,0,0,0,0 v255 No position 918 - -84 12.5 868.3Mhz, SF9BW125, 4/5CR
2020-11-22 16:46:49 8.125°C 92.5% 3.34V 0,0,0,0,0,0,0,0,0,0,0,0 v255 No position 917 - -89 12.75 867.7Mhz, SF9BW125, 4/5CR
2020-11-22 16:14:00 8.9375°C 91.75% 3.34V 0,0,0,0,0,0,0,0,0,0,0,0 v255 No position 916 - -91 12.25 868.1Mhz, SF9BW125, 4/5CR
2020-11-22 15:41:09 10°C 90.6875% 3.34V 0,0,0,0,0,0,0,0,0,0,0,0 v255 No position 915 - -85 8.75 867.5Mhz, SF9BW125, 4/5CR
2020-11-22 15:08:19 10.6875°C 89.75% 3.34V 0,0,0,0,0,0,0,0,0,0,0,0 v255 No position 914 - -90 8.5 868.5Mhz, SF9BW125, 4/5CR
2020-11-22 14:35:28 11°C 89.6875% 3.34V 0,0,0,0,0,0,0,0,0,0,0,0 v255 No position 913 - -89 13 867.3Mhz, SF9BW125, 4/5CR
2020-11-22 14:02:37 11.25°C 90.625% 3.34V 0,0,0,0,0,0,0,0,0,0,0,0 v255 No position 912 - -91 12.5 868.3Mhz, SF9BW125, 4/5CR
2020-11-22 13:29:45 11.5625°C 91.4375% 3.34V 0,0,0,0,0,0,0,0,0,0,0,0 v255 No position 911 - -91 12.5 867.1Mhz, SF9BW125, 4/5CR
2020-11-22 12:56:54 11.625°C 93.6875% 3.33V 0,0,0,0,0,0,0,0,0,0,0,0 v255 No position 910 - -91 13 868.1Mhz, SF9BW125, 4/5CR
2020-11-22 12:24:03 11.5625°C 95.8125% 3.34V 0,0,0,0,0,0,0,0,0,0,0,0 v255 No position 909 - -88 12.5 867.9Mhz, SF9BW125, 4/5CR
2020-11-22 11:51:11 11.1875°C 96.875% 3.34V 0,0,0,0,0,0,0,0,0,0,0,0 v255 No position 908 - -84 9.75 868.5Mhz, SF9BW125, 4/5CR
2020-11-22 11:18:20 10.6875°C 97.5625% 3.34V 0,0,0,0,0,0,0,0,0,0,0,0 v255 No position 907 - -89 12.75 867.7Mhz, SF9BW125, 4/5CR
2020-11-22 10:45:29 10.25°C 98% 3.34V 0,0,0,0,0,0,0,0,0,0,0,0 v255 No position 906 - -85 12.75 868.3Mhz, SF9BW125, 4/5CR
2020-11-22 10:12:39 9.625°C 98.4375% 3.34V 0,0,0,0,0,0,0,0,0,0,0,0 v255 No position 905 - -87 9.75 867.5Mhz, SF9BW125, 4/5CR
2020-11-22 09:39:48 9.4375°C 98.6875% 3.33V 0,0,0,0,0,0,0,0,0,0,0,0 v255 No position 904 - -87 12.25 868.1Mhz, SF9BW125, 4/5CR
2020-11-22 09:06:58 9.1875°C 99.125% 3.33V 0,0,0,0,0,0,0,0,0,0,0,0 v255 No position 903 - -91 13 867.3Mhz, SF9BW125, 4/5CR
2020-11-22 08:34:08 9.125°C 99.25% 3.34V 0,0,0,0,0,0,0,0,0,0,0,0 v255 No position 902 - -89 8.5 868.5Mhz, SF9BW125, 4/5CR
2020-11-22 08:01:18 9.375°C 99.25% 3.34V 0,0,0,0,0,0,0,0,0,0,0,0 v255 No position 901 - -93 13.25 867.1Mhz, SF9BW125, 4/5CR
2020-11-22 07:28:28 9.5°C 99.125% 3.34V 0,0,0,0,0,0,0,0,0,0,0,0 v255 No position 900 - -91 11.75 868.3Mhz, SF9BW125, 4/5CR
2020-11-22 06:55:38 9.5°C 99.0625% 3.34V 0,0,0,0,0,0,0,0,0,0,0,0 v255 No position 899 - -93 13.25 867.9Mhz, SF9BW125, 4/5CR
2020-11-22 05:49:57 9.4375°C 98.75% 3.34V 0,0,0,0,0,0,0,0,0,0,0,0 v255 No position 897 - -90 11.75 867.7Mhz, SF9BW125, 4/5CR
2020-11-22 05:17:07 9.4375°C 98.5% 3.34V 0,0,0,0,0,0,0,0,0,0,0,0 v255 No position 896 - -91 8.5 868.5Mhz, SF9BW125, 4/5CR
2020-11-22 04:44:17 9.3125°C 98.1875% 3.34V 0,0,0,0,0,0,0,0,0,0,0,0 v255 No position 895 - -91 9 867.5Mhz, SF9BW125, 4/5CR
2020-11-22 04:11:27 9.3125°C 97.9375% 3.34V 0,0,0,0,0,0,0,0,0,0,0,0 v255 No position 894 - -89 12.5 868.3Mhz, SF9BW125, 4/5CR
2020-11-22 03:38:37 9.3125°C 97.625% 3.34V 0,0,0,0,0,0,0,0,0,0,0,0 v255 No position 893 - -87 13.75 867.3Mhz, SF9BW125, 4/5CR
2020-11-22 03:05:47 9.375°C 97.4375% 3.34V 0,0,0,0,0,0,0,0,0,0,0,0 v255 No position 892 - -91 13.25 868.1Mhz, SF9BW125, 4/5CR
2020-11-22 02:32:56 9.375°C 97.375% 3.34V 0,0,0,0,0,0,0,0,0,0,0,0 v255 No position 891 - -91 12 867.1Mhz, SF9BW125, 4/5CR
2020-11-22 02:00:06 9.375°C 97.4375% 3.34V 0,0,0,0,0,0,0,0,0,0,0,0 v255 No position 890 - -84 9.5 868.5Mhz, SF9BW125, 4/5CR
2020-11-22 01:27:16 9.375°C 97.4375% 3.34V 0,0,0,0,0,0,0,0,0,0,0,0 v255 No position 889 - -91 11.5 867.9Mhz, SF9BW125, 4/5CR
2020-11-22 00:54:26 9.375°C 97.4375% 3.33V 0,0,0,0,0,0,0,0,0,0,0,0 v255 No position 888 - -85 12 868.3Mhz, SF9BW125, 4/5CR
2020-11-22 00:21:35 9.3125°C 97.375% 3.33V 0,0,0,0,0,0,0,0,0,0,0,0 v255 No position 887 - -89 13.25 867.7Mhz, SF9BW125, 4/5CR
2020-11-21 23:48:45 9.3125°C 97.4375% 3.34V 0,0,0,0,0,0,0,0,0,0,0,0 v255 No position 886 - -91 11.75 868.1Mhz, SF9BW125, 4/5CR
2020-11-21 23:15:55 9.25°C 97.4375% 3.34V 0,0,0,0,0,0,0,0,0,0,0,0 v255 No position 885 - -84 10.25 867.5Mhz, SF9BW125, 4/5CR
2020-11-21 22:43:05 9.1875°C 97.4375% 3.34V 0,0,0,0,0,0,0,0,0,0,0,0 v255 No position 884 - -85 9.5 868.5Mhz, SF9BW125, 4/5CR
2020-11-21 22:10:15 9.1875°C 97.375% 3.33V 0,0,0,0,0,0,0,0,0,0,0,0 v255 No position 883 - -85 11.5 867.3Mhz, SF9BW125, 4/5CR
2020-11-21 21:37:25 9.125°C 97.3125% 3.34V 0,0,0,0,0,0,0,0,0,0,0,0 v255 No position 882 - -87 13.75 868.3Mhz, SF9BW125, 4/5CR
2020-11-21 21:04:35 9.125°C 97.125% 3.34V 0,0,0,0,0,0,0,0,0,0,0,0 v255 No position 881 - -91 12.75 867.1Mhz, SF9BW125, 4/5CR
2020-11-21 20:31:45 9.0625°C 96.8125% 3.34V 0,0,0,0,0,0,0,0,0,0,0,0 v255 No position 880 - -89 13.75 868.1Mhz, SF9BW125, 4/5CR
2020-11-21 19:58:54 9.0625°C 96.5625% 3.34V 0,0,0,0,0,0,0,0,0,0,0,0 v255 No position 879 - -85 12.25 867.9Mhz, SF9BW125, 4/5CR
2020-11-21 19:26:04 9.0625°C 96.3125% 3.34V 0,0,0,0,0,0,0,0,0,0,0,0 v255 No position 878 - -89 9.25 868.5Mhz, SF9BW125, 4/5CR
2020-11-21 18:53:14 9.0625°C 95.75% 3.34V 0,0,0,0,0,0,0,0,0,0,0,0 v255 No position 877 - -87 12.5 867.7Mhz, SF9BW125, 4/5CR
2020-11-21 18:20:24 9.0625°C 95.1875% 3.34V 0,0,0,0,0,0,0,0,0,0,0,0 v255 No position 876 - -87 13 868.3Mhz, SF9BW125, 4/5CR
2020-11-21 17:47:34 9.125°C 94.5% 3.34V 0,0,0,0,0,0,0,0,0,0,0,0 v255 No position 875 - -84 9.5 867.5Mhz, SF9BW125, 4/5CR
2020-11-21 17:14:44 9.1875°C 93.9375% 3.33V 0,0,0,0,0,0,0,0,0,0,0,0 v255 No position 874 - -89 14.25 868.1Mhz, SF9BW125, 4/5CR
2020-11-21 16:41:54 9.25°C 93.125% 3.33V 0,0,0,0,0,0,0,0,0,0,0,0 v255 No position 873 - -85 13.25 867.3Mhz, SF9BW125, 4/5CR
2020-11-21 16:09:04 9.4375°C 92.375% 3.33V 0,0,0,0,0,0,0,0,0,0,0,0 v255 No position 872 - -87 9 868.5Mhz, SF9BW125, 4/5CR
2020-11-21 15:36:14 9.5625°C 91.8125% 3.34V 0,0,0,0,0,0,0,0,0,0,0,0 v255 No position 871 - -89 13.5 867.1Mhz, SF9BW125, 4/5CR
2020-11-21 15:03:23 9.6875°C 91.4375% 3.34V 0,0,0,0,0,0,0,0,0,0,0,0 v255 No position 870 - -87 12.75 868.3Mhz, SF9BW125, 4/5CR
2020-11-21 14:30:33 9.625°C 91.625% 3.34V 0,0,0,0,0,0,0,0,0,0,0,0 v255 No position 869 - -87 13.25 867.9Mhz, SF9BW125, 4/5CR
2020-11-21 13:57:43 9.5625°C 92.0625% 3.34V 0,0,0,0,0,0,0,0,0,0,0,0 v255 No position 868 - -87 11.5 868.1Mhz, SF9BW125, 4/5CR
2020-11-21 13:24:52 9.4375°C 92.5625% 3.33V 0,0,0,0,0,0,0,0,0,0,0,0 v255 No position 867 - -87 12.5 867.7Mhz, SF9BW125, 4/5CR
2020-11-21 12:52:02 9.0625°C 93.5625% 3.34V 0,0,0,0,0,0,0,0,0,0,0,0 v255 No position 866 - -84 9.5 868.5Mhz, SF9BW125, 4/5CR
2020-11-21 12:19:12 8.625°C 93.9375% 3.34V 0,0,0,0,0,0,0,0,0,0,0,0 v255 No position 865 - -85 9.5 867.5Mhz, SF9BW125, 4/5CR
2020-11-21 11:48:36 8.3125°C 94.5% 3.34V 0,0,0,0,0,0,0,0,0,0,0,0 v255 No position 864 - -85 9 868.3Mhz, SF12BW125, 4/5CR
2020-11-21 11:13:44 7.9375°C 94.6875% 3.34V 0,0,0,0,0,0,0,0,0,0,0,0 v255 No position 863 - -82 12.25 867.3Mhz, SF9BW125, 4/5CR
2020-11-21 10:40:55 7.5°C 94.875% 3.34V 0,0,0,0,0,0,0,0,0,0,0,0 v255 No position 862 - -87 12.5 868.1Mhz, SF9BW125, 4/5CR
2020-11-21 10:08:06 7.3125°C 94.6875% 3.34V 0,0,0,0,0,0,0,0,0,0,0,0 v255 No position 861 - -87 14.5 867.1Mhz, SF9BW125, 4/5CR
2020-11-21 09:35:17 7.0625°C 94.5625% 3.34V 0,0,0,0,0,0,0,0,0,0,0,0 v255 No position 860 - -85 9 868.5Mhz, SF9BW125, 4/5CR
2020-11-21 09:02:28 6.75°C 94.3125% 3.34V 0,0,0,0,0,0,0,0,0,0,0,0 v255 No position 859 - -85 11 867.9Mhz, SF9BW125, 4/5CR
2020-11-21 08:29:39 6.5°C 93.9375% 3.34V 0,0,0,0,0,0,0,0,0,0,0,0 v255 No position 858 - -85 13 868.3Mhz, SF9BW125, 4/5CR
2020-11-21 07:56:50 6.3125°C 93.5% 3.33V 0,0,0,0,0,0,0,0,0,0,0,0 v255 No position 857 - -85 12.5 867.7Mhz, SF9BW125, 4/5CR
2020-11-21 07:24:02 6.125°C 92.9375% 3.34V 0,0,0,0,0,0,0,0,0,0,0,0 v255 No position 856 - -85 11.75 868.1Mhz, SF9BW125, 4/5CR
2020-11-21 06:51:13 6.0625°C 92.375% 3.34V 0,0,0,0,0,0,0,0,0,0,0,0 v255 No position 855 - -84 9 867.5Mhz, SF9BW125, 4/5CR
2020-11-21 06:18:24 5.9375°C 91.875% 3.34V 0,0,0,0,0,0,0,0,0,0,0,0 v255 No position 854 - -85 9 868.5Mhz, SF9BW125, 4/5CR
2020-11-21 05:45:36 5.75°C 91.5% 3.34V 0,0,0,0,0,0,0,0,0,0,0,0 v255 No position 853 - -85 12.75 867.3Mhz, SF9BW125, 4/5CR
2020-11-21 05:12:48 5.6875°C 90.875% 3.34V 0,0,0,0,0,0,0,0,0,0,0,0 v255 No position 852 - -85 11.25 868.3Mhz, SF9BW125, 4/5CR
2020-11-21 04:39:59 5.4375°C 89.875% 3.34V 0,0,0,0,0,0,0,0,0,0,0,0 v255 No position 851 - -85 12.5 867.1Mhz, SF9BW125, 4/5CR
2020-11-21 04:07:11 5.25°C 89% 3.34V 0,0,0,0,0,0,0,0,0,0,0,0 v255 No position 850 - -84 12 868.1Mhz, SF9BW125, 4/5CR
2020-11-21 03:34:23 5.25°C 87.8125% 3.34V 0,0,0,0,0,0,0,0,0,0,0,0 v255 No position 849 - -87 13.75 867.9Mhz, SF9BW125, 4/5CR
2020-11-21 03:01:35 5.0625°C 87.75% 3.34V 0,0,0,0,0,0,0,0,0,0,0,0 v255 No position 848 - -82 10 868.5Mhz, SF9BW125, 4/5CR
2020-11-21 02:28:47 4.8125°C 87.875% 3.34V 0,0,0,0,0,0,0,0,0,0,0,0 v255 No position 847 - -83 13.25 867.7Mhz, SF9BW125, 4/5CR
2020-11-21 01:55:59 4.6875°C 87.9375% 3.34V 0,0,0,0,0,0,0,0,0,0,0,0 v255 No position 846 - -85 12.75 868.3Mhz, SF9BW125, 4/5CR
2020-11-21 01:23:12 4.4375°C 88.625% 3.34V 0,0,0,0,0,0,0,0,0,0,0,0 v255 No position 845 - -82 9.75 867.5Mhz, SF9BW125, 4/5CR
2020-11-21 00:50:24 4.125°C 89.0625% 3.34V 0,0,0,0,0,0,0,0,0,0,0,0 v255 No position 844 - -87 13.5 868.1Mhz, SF9BW125, 4/5CR
2020-11-21 00:17:37 4°C 89.9375% 3.34V 0,0,0,0,0,0,0,0,0,0,0,0 v255 No position 843 - -83 12 867.3Mhz, SF9BW125, 4/5CR
2020-11-20 23:44:49 4.0625°C 91.25% 3.34V 0,0,0,0,0,0,0,0,0,0,0,0 v255 No position 842 - -82 9.5 868.5Mhz, SF9BW125, 4/5CR
2020-11-20 23:12:02 3.5625°C 91.8125% 3.34V 0,0,0,0,0,0,0,0,0,0,0,0 v255 No position 841 - -87 14.25 867.1Mhz, SF9BW125, 4/5CR
2020-11-20 22:39:15 3.5°C 91.3125% 3.34V 0,0,0,0,0,0,0,0,0,0,0,0 v255 No position 840 - -84 13.5 868.3Mhz, SF9BW125, 4/5CR
2020-11-20 22:06:27 3.6875°C 92% 3.34V 0,0,0,0,0,0,0,0,0,0,0,0 v255 No position 839 - -84 13.5 867.9Mhz, SF9BW125, 4/5CR
2020-11-20 21:33:40 3.25°C 91.5% 3.34V 0,0,0,0,0,0,0,0,0,0,0,0 v255 No position 838 - -83 12.25 868.1Mhz, SF9BW125, 4/5CR
2020-11-20 21:00:53 3.25°C 91.1875% 3.34V 0,0,0,0,0,0,0,0,0,0,0,0 v255 No position 837 - -85 13 867.7Mhz, SF9BW125, 4/5CR
2020-11-20 20:28:06 3.4375°C 91% 3.34V 0,0,0,0,0,0,0,0,0,0,0,0 v255 No position 836 - -84 9.75 868.5Mhz, SF9BW125, 4/5CR
2020-11-20 19:55:19 3.6875°C 90.5% 3.34V 0,0,0,0,0,0,0,0,0,0,0,0 v255 No position 835 - -84 9.75 867.5Mhz, SF9BW125, 4/5CR
2020-11-20 19:22:31 3.8125°C 90.5% 3.34V 0,0,0,0,0,0,0,0,0,0,0,0 v255 No position 834 - -83 12.75 868.3Mhz, SF9BW125, 4/5CR
2020-11-20 18:49:44 3.9375°C 90.375% 3.34V 0,0,0,0,0,0,0,0,0,0,0,0 v255 No position 833 - -85 12.5 867.3Mhz, SF9BW125, 4/5CR
2020-11-20 18:16:56 4.25°C 89.9375% 3.34V 0,0,0,0,0,0,0,0,0,0,0,0 v255 No position 832 - -83 12 868.1Mhz, SF9BW125, 4/5CR
2020-11-20 17:44:09 4.8125°C 89.125% 3.34V 0,0,0,0,0,0,0,0,0,0,0,0 v255 No position 831 - -85 11.75 867.1Mhz, SF9BW125, 4/5CR
2020-11-20 17:11:21 5.6875°C 88.25% 3.34V 0,0,0,0,0,0,0,0,0,0,0,0 v255 No position 830 - -85 8.5 868.5Mhz, SF9BW125, 4/5CR
2020-11-20 16:38:32 6.875°C 87.125% 3.34V 0,0,0,0,0,0,0,0,0,0,0,0 v255 No position 829 - -87 12.5 867.9Mhz, SF9BW125, 4/5CR
2020-11-20 16:05:43 7.5°C 86.1875% 3.34V 0,0,0,0,0,0,0,0,0,0,0,0 v255 No position 828 - -85 12 868.3Mhz, SF9BW125, 4/5CR
2020-11-20 15:32:54 7.8125°C 85.9375% 3.34V 0,0,0,0,0,0,0,0,0,0,0,0 v255 No position 827 - -82 11.5 867.7Mhz, SF9BW125, 4/5CR
2020-11-20 15:00:04 8.0625°C 88.5625% 3.34V 0,0,0,0,0,0,0,0,0,0,0,0 v255 No position 826 - -87 13.5 868.1Mhz, SF9BW125, 4/5CR
2020-11-20 14:27:15 8°C 89.375% 3.34V 0,0,0,0,0,0,0,0,0,0,0,0 v255 No position 825 - -82 9.75 867.5Mhz, SF9BW125, 4/5CR
2020-11-20 13:54:25 7.6875°C 89.625% 3.34V 0,0,0,0,0,0,0,0,0,0,0,0 v255 No position 824 - -84 8 868.5Mhz, SF9BW125, 4/5CR
2020-11-20 13:21:36 7.75°C 89.1875% 3.34V 0,0,0,0,0,0,0,0,0,0,0,0 v255 No position 823 - -87 13.5 867.3Mhz, SF9BW125, 4/5CR
2020-11-20 12:48:46 8.0625°C 88.8125% 3.34V 0,0,0,0,0,0,0,0,0,0,0,0 v255 No position 822 - -83 12.25 868.3Mhz, SF9BW125, 4/5CR
2020-11-20 12:15:57 7.4375°C 91.1875% 3.34V 0,0,0,0,0,0,0,0,0,0,0,0 v255 No position 821 - -89 13.75 867.1Mhz, SF9BW125, 4/5CR
2020-11-20 11:43:08 6.9375°C 92.25% 3.33V 0,0,0,0,0,0,0,0,0,0,0,0 v255 No position 820 - -87 12.75 868.1Mhz, SF9BW125, 4/5CR
2020-11-20 11:10:19 6.8125°C 93.1875% 3.34V 0,0,0,0,0,0,0,0,0,0,0,0 v255 No position 819 - -91 12.75 867.9Mhz, SF9BW125, 4/5CR
2020-11-20 10:37:30 6.25°C 94.3125% 3.34V 0,0,0,0,0,0,0,0,0,0,0,0 v255 No position 818 - -89 8.25 868.5Mhz, SF9BW125, 4/5CR
2020-11-20 10:04:42 5.625°C 95.5625% 3.34V 0,0,0,0,0,0,0,0,0,0,0,0 v255 No position 817 - -82 10 867.7Mhz, SF9BW125, 4/5CR
2020-11-20 09:31:54 5.125°C 95.6875% 3.34V 0,0,0,0,0,0,0,0,0,0,0,0 v255 No position 816 - -85 13.25 868.3Mhz, SF9BW125, 4/5CR
2020-11-20 08:59:06 4.6875°C 95.75% 3.34V 0,0,0,0,0,0,0,0,0,0,0,0 v255 No position 815 - -83 9.5 867.5Mhz, SF9BW125, 4/5CR
2020-11-20 08:26:18 4.4375°C 95.4375% 3.34V 0,0,0,0,0,0,0,0,0,0,0,0 v255 No position 814 - -85 11.5 868.1Mhz, SF9BW125, 4/5CR
2020-11-20 07:53:31 4.1875°C 95.75% 3.34V 0,0,0,0,0,0,0,0,0,0,0,0 v255 No position 813 - -85 12.5 867.3Mhz, SF9BW125, 4/5CR
2020-11-20 07:20:43 4.625°C 96.0625% 3.34V 0,0,0,0,0,0,0,0,0,0,0,0 v255 No position 812 - -87 9 868.5Mhz, SF9BW125, 4/5CR
2020-11-20 06:47:55 4.5625°C 96.125% 3.34V 0,0,0,0,0,0,0,0,0,0,0,0 v255 No position 811 - -84 11.25 867.1Mhz, SF9BW125, 4/5CR
2020-11-20 06:15:07 4.6875°C 96.125% 3.34V 0,0,0,0,0,0,0,0,0,0,0,0 v255 No position 810 - -83 11.75 868.3Mhz, SF9BW125, 4/5CR
2020-11-20 05:42:20 4.5°C 96% 3.34V 0,0,0,0,0,0,0,0,0,0,0,0 v255 No position 809 - -85 14 867.9Mhz, SF9BW125, 4/5CR
2020-11-20 05:09:32 4.3125°C 95.9375% 3.34V 0,0,0,0,0,0,0,0,0,0,0,0 v255 No position 808 - -84 12.75 868.1Mhz, SF9BW125, 4/5CR
2020-11-20 04:36:45 4.125°C 96% 3.34V 0,0,0,0,0,0,0,0,0,0,0,0 v255 No position 807 - -82 12.5 867.7Mhz, SF9BW125, 4/5CR
2020-11-20 04:03:57 4.125°C 96.0625% 3.34V 0,0,0,0,0,0,0,0,0,0,0,0 v255 No position 806 - -87 9 868.5Mhz, SF9BW125, 4/5CR
2020-11-20 03:31:10 4.25°C 95.875% 3.34V 0,0,0,0,0,0,0,0,0,0,0,0 v255 No position 805 - -84 8.25 867.5Mhz, SF9BW125, 4/5CR
2020-11-20 02:58:22 4.0625°C 95.8125% 3.34V 0,0,0,0,0,0,0,0,0,0,0,0 v255 No position 804 - -84 11 868.3Mhz, SF9BW125, 4/5CR
2020-11-20 02:25:35 4.125°C 95.875% 3.34V 0,0,0,0,0,0,0,0,0,0,0,0 v255 No position 803 - -85 12.75 867.3Mhz, SF9BW125, 4/5CR
2020-11-20 01:52:47 4.125°C 95.75% 3.34V 0,0,0,0,0,0,0,0,0,0,0,0 v255 No position 802 - -89 13.5 868.1Mhz, SF9BW125, 4/5CR
2020-11-20 01:20:00 4.0625°C 95.375% 3.34V 0,0,0,0,0,0,0,0,0,0,0,0 v255 No position 801 - -85 13 867.1Mhz, SF9BW125, 4/5CR
2020-11-20 00:47:13 3.875°C 95.375% 3.34V 0,0,0,0,0,0,0,0,0,0,0,0 v255 No position 800 - -87 8 868.5Mhz, SF9BW125, 4/5CR
2020-11-20 00:14:25 4.0625°C 95.3125% 3.34V 0,0,0,0,0,0,0,0,0,0,0,0 v255 No position 799 - -89 12.75 867.9Mhz, SF9BW125, 4/5CR
2020-11-19 23:41:38 3.875°C 94.6875% 3.34V 0,0,0,0,0,0,0,0,0,0,0,0 v255 No position 798 - -89 13.5 868.3Mhz, SF9BW125, 4/5CR
2020-11-19 23:08:51 3.375°C 94% 3.34V 0,0,0,0,0,0,0,0,0,0,0,0 v255 No position 797 - -85 12 867.7Mhz, SF9BW125, 4/5CR
2020-11-19 22:03:17 3.5625°C 93.5625% 3.34V 0,0,0,0,0,0,0,0,0,0,0,0 v255 No position 795 - -85 9 867.5Mhz, SF9BW125, 4/5CR
2020-11-19 21:30:29 3.8125°C 93.5% 3.34V 0,0,0,0,0,0,0,0,0,0,0,0 v255 No position 794 - -88 9 868.5Mhz, SF9BW125, 4/5CR
2020-11-19 20:57:42 4.25°C 93.75% 3.34V 0,0,0,0,0,0,0,0,0,0,0,0 v255 No position 793 - -85 12 867.3Mhz, SF9BW125, 4/5CR
2020-11-19 20:24:54 4.5625°C 93.375% 3.34V 0,0,0,0,0,0,0,0,0,0,0,0 v255 No position 792 - -89 12.75 868.3Mhz, SF9BW125, 4/5CR
2020-11-19 19:52:07 4.5°C 92.625% 3.34V 0,0,0,0,0,0,0,0,0,0,0,0 v255 No position 791 - -83 11.5 867.1Mhz, SF9BW125, 4/5CR
2020-11-19 19:19:19 4.875°C 92.3125% 3.34V 0,0,0,0,0,0,0,0,0,0,0,0 v255 No position 790 - -85 11.5 868.1Mhz, SF9BW125, 4/5CR
2020-11-19 18:46:31 5.5625°C 92.625% 3.34V 0,0,0,0,0,0,0,0,0,0,0,0 v255 No position 789 - -89 13 867.9Mhz, SF9BW125, 4/5CR
2020-11-19 18:13:42 5.75°C 91.5% 3.33V 0,0,0,0,0,0,0,0,0,0,0,0 v255 No position 788 - -85 9.25 868.5Mhz, SF9BW125, 4/5CR
2020-11-19 17:40:54 6.6875°C 91.9375% 3.34V 0,0,0,0,0,0,0,0,0,0,0,0 v255 No position 787 - -84 12.25 867.7Mhz, SF9BW125, 4/5CR
2020-11-19 17:08:05 7.0625°C 91.4375% 3.34V 0,0,0,0,0,0,0,0,0,0,0,0 v255 No position 786 - -84 12.5 868.3Mhz, SF9BW125, 4/5CR
2020-11-19 16:35:16 8.125°C 90.4375% 3.34V 0,0,0,0,0,0,0,0,0,0,0,0 v255 No position 785 - -82 9 867.5Mhz, SF9BW125, 4/5CR
2020-11-19 16:02:26 8.875°C 91.0625% 3.34V 0,0,0,0,0,0,0,0,0,0,0,0 v255 No position 784 - -87 13 868.1Mhz, SF9BW125, 4/5CR
2020-11-19 15:29:36 9.1875°C 91.3125% 3.34V 0,0,0,0,0,0,0,0,0,0,0,0 v255 No position 783 - -84 11.5 867.3Mhz, SF9BW125, 4/5CR
2020-11-19 14:56:46 9.6875°C 90.875% 3.34V 0,0,0,0,0,0,0,0,0,0,0,0 v255 No position 782 - -89 9.5 868.5Mhz, SF9BW125, 4/5CR
2020-11-19 14:23:55 9.625°C 91.4375% 3.34V 0,0,0,0,0,0,0,0,0,0,0,0 v255 No position 781 - -87 12.5 867.1Mhz, SF9BW125, 4/5CR
2020-11-19 13:51:04 10.125°C 90.8125% 3.34V 0,0,0,0,0,0,0,0,0,0,0,0 v255 No position 780 - -87 11.75 868.3Mhz, SF9BW125, 4/5CR
2020-11-19 13:18:13 10.6875°C 90.625% 3.34V 0,0,0,0,0,0,0,0,0,0,0,0 v255 No position 779 - -85 12.25 867.9Mhz, SF9BW125, 4/5CR
2020-11-19 12:45:22 10.25°C 91.1875% 3.34V 0,0,0,0,0,0,0,0,0,0,0,0 v255 No position 778 - -85 12.75 868.1Mhz, SF9BW125, 4/5CR
2020-11-19 12:12:32 9.9375°C 91.3125% 3.34V 0,0,0,0,0,0,0,0,0,0,0,0 v255 No position 777 - -90 11.75 867.7Mhz, SF9BW125, 4/5CR
2020-11-19 11:39:41 10.6875°C 89.9375% 3.34V 0,0,0,0,0,0,0,0,0,0,0,0 v255 No position 776 - -87 8.5 868.5Mhz, SF9BW125, 4/5CR
2020-11-19 11:06:50 10.3125°C 91.0625% 3.34V 0,0,0,0,0,0,0,0,0,0,0,0 v255 No position 775 - -83 9.5 867.5Mhz, SF9BW125, 4/5CR
2020-11-19 10:34:00 9.4375°C 92.625% 3.34V 0,0,0,0,0,0,0,0,0,0,0,0 v255 No position 774 - -89 13 868.3Mhz, SF9BW125, 4/5CR
2020-11-19 10:01:09 8.9375°C 93.1875% 3.34V 0,0,0,0,0,0,0,0,0,0,0,0 v255 No position 773 - -79 12.75 867.3Mhz, SF9BW125, 4/5CR
2020-11-19 09:28:19 8.6875°C 93.5% 3.34V 0,0,0,0,0,0,0,0,0,0,0,0 v255 No position 772 - -89 13.75 868.1Mhz, SF9BW125, 4/5CR
2020-11-19 08:55:30 8.375°C 93.5625% 3.34V 0,0,0,0,0,0,0,0,0,0,0,0 v255 No position 771 - -82 12.25 867.1Mhz, SF9BW125, 4/5CR
2020-11-19 08:22:40 8.25°C 92.9375% 3.34V 0,0,0,0,0,0,0,0,0,0,0,0 v255 No position 770 - -89 9.5 868.5Mhz, SF9BW125, 4/5CR
2020-11-19 07:49:50 8.3125°C 91.1875% 3.34V 0,0,0,0,0,0,0,0,0,0,0,0 v255 No position 769 - -91 11.75 867.9Mhz, SF9BW125, 4/5CR
2020-11-19 07:19:14 8.5°C 89.625% 3.34V 0,0,0,0,0,0,0,0,0,0,0,0 v255 No position 768 - -91 8.5 868.3Mhz, SF12BW125, 4/5CR
2020-11-19 06:44:22 8.4375°C 89.5625% 3.34V 0,0,0,0,0,0,0,0,0,0,0,0 v255 No position 767 - -85 12.5 867.7Mhz, SF9BW125, 4/5CR
2020-11-19 06:11:33 8.3125°C 90.25% 3.34V 0,0,0,0,0,0,0,0,0,0,0,0 v255 No position 766 - -89 13.25 868.1Mhz, SF9BW125, 4/5CR
2020-11-19 05:38:43 8.1875°C 90.5625% 3.34V 0,0,0,0,0,0,0,0,0,0,0,0 v255 No position 765 - -80 9.25 867.5Mhz, SF9BW125, 4/5CR

Message count: 200
Node count: 1

Messages per node

Number of messages in list aboveNodes
200

Statistics per gateway

GatewayNumber of messagesNumber of nodesNodes
2001

Filter by dataset